datetime,storage
1950-02-02,220200.0
1950-02-03,224700.0
1950-02-04,223500.0
1950-02-05,218000.0
1950-02-06,219200.0
1950-02-07,223500.0
1950-02-08,225800.0
1950-02-09,227300.0
1950-02-10,227800.0
1950-02-11,226100.0
1950-02-12,217600.0
1950-02-13,
1950-02-14,217500.0
1950-02-15,221300.0
1950-02-16,225500.0
1950-02-17,230600.0
1950-02-18,228900.0
1950-02-19,222300.0
1950-02-20,219700.0
1950-02-21,220700.0
1950-02-22,221700.0
1950-02-23,224100.0
1950-02-24,227200.0
1950-02-25,224600.0
1950-02-26,
1950-02-27,
1950-02-28,219900.0
1950-03-01,225200.0
1950-03-02,230300.0
1950-03-03,235700.0
1950-03-04,232900.0
1950-03-05,223100.0
1950-03-06,224400.0
1950-03-07,227400.0
1950-03-08,231100.0
1950-03-09,235400.0
1950-03-10,239000.0
1950-03-11,240100.0
1950-03-12,231200.0
1950-03-13,229600.0
1950-03-14,235400.0
1950-03-15,240700.0
1950-03-16,244900.0
1950-03-17,250100.0
1950-03-18,243500.0
1950-03-19,232800.0
1950-03-20,227200.0
1950-03-21,225600.0
1950-03-22,223700.0
1950-03-23,222600.0
1950-03-24,222700.0
1950-03-25,218800.0
1950-03-26,
1950-03-27,
1950-03-28,
1950-03-29,
1950-03-30,
1950-03-31,
1950-04-01,
1950-04-02,
1950-04-03,
1950-04-04,
1950-04-05,225500.0
1950-04-06,233800.0
1950-04-07,240200.0
1950-04-08,240700.0
1950-04-09,238100.0
1950-04-10,239000.0
1950-04-11,244500.0
1950-04-12,248500.0
1950-04-13,252000.0
1950-04-14,257299.984
1950-04-15,254300.0
1950-04-16,247200.0
1950-04-17,246100.0
1950-04-18,252600.0
1950-04-19,256900.0
1950-04-20,262000.0
1950-04-21,266600.0
1950-04-22,265000.0
1950-04-23,256500.0
1950-04-24,256100.0
1950-04-25,259299.984
1950-04-26,264200.0
1950-04-27,268600.0
1950-04-28,274200.0
1950-04-29,267300.0
1950-04-30,256400.0
1950-05-01,253600.0
1950-05-02,257100.0
1950-05-03,261900.0
1950-05-04,265600.0
1950-05-05,267100.0
1950-05-06,262800.0
1950-05-07,253200.0
1950-05-08,247400.0
1950-05-09,247200.0
1950-05-10,247800.0
1950-05-11,246100.0
1950-05-12,246500.0
1950-05-13,243200.0
1950-05-14,234700.0
1950-05-15,232200.0
1950-05-16,236700.0
1950-05-17,237300.0
1950-05-18,239300.0
1950-05-19,243600.0
1950-05-20,242300.0
1950-05-21,234100.0
1950-05-22,233400.0
1950-05-23,237300.0
1950-05-24,243200.0
1950-05-25,248900.0
1950-05-26,252000.0
1950-05-27,249000.0
1950-05-28,240500.0
1950-05-29,236700.0
1950-05-30,248300.0
1950-05-31,248500.0
1950-06-01,254300.0
1950-06-02,254200.0
1950-06-03,246400.0
1950-06-04,231200.0
1950-06-05,227000.0
1950-06-06,232300.0
1950-06-07,235400.0
1950-06-08,237700.0
1950-06-09,239000.0
1950-06-10,236100.0
1950-06-11,228000.0
1950-06-12,225100.0
1950-06-13,228800.0
1950-06-14,233200.0
1950-06-15,237700.0
1950-06-16,242200.0
1950-06-17,240900.0
1950-06-18,234700.0
1950-06-19,234400.0
1950-06-20,240300.0
1950-06-21,245700.0
1950-06-22,251400.0
1950-06-23,255700.0
1950-06-24,254800.0
1950-06-25,246100.0
1950-06-26,243200.0
1950-06-27,246900.0
1950-06-28,250700.0
1950-06-29,254600.0
1950-06-30,259100.0
1950-07-01,258100.0
1950-07-02,249900.0
1950-07-03,246100.0
1950-07-04,240700.0
1950-07-05,239900.0
1950-07-06,244700.0
1950-07-07,250300.0
1950-07-08,254800.0
1950-07-09,248900.0
1950-07-10,249700.0
1950-07-11,251400.0
1950-07-12,256100.0
1950-07-13,260400.0
1950-07-14,265100.0
1950-07-15,265600.0
1950-07-16,261600.0
1950-07-17,260400.0
1950-07-18,265800.0
1950-07-19,271600.0
1950-07-20,274800.0
1950-07-21,278600.0
1950-07-22,279200.0
1950-07-23,272800.0
1950-07-24,281900.0
1950-07-25,283000.0
1950-07-26,286700.0
1950-07-27,289900.0
1950-07-28,290600.0
1950-07-29,288400.0
1950-07-30,291000.0
1950-07-31,295800.0
1950-08-01,324600.0
1950-08-02,352000.0
1950-08-03,380600.0
1950-08-04,407700.0
1950-08-05,414500.0
1950-08-06,410300.0
1950-08-07,411400.0
1950-08-08,417500.0
1950-08-09,420200.0
1950-08-10,420200.0
1950-08-11,421100.0
1950-08-12,413000.0
1950-08-13,398600.0
1950-08-14,392900.0
1950-08-15,391200.0
1950-08-16,390200.0
1950-08-17,386000.0
1950-08-18,384800.0
1950-08-19,377600.0
1950-08-20,363700.0
1950-08-21,356700.0
1950-08-22,354400.0
1950-08-23,352100.0
1950-08-24,363700.0
1950-08-25,363700.0
1950-08-26,354200.0
1950-08-27,337800.0
1950-08-28,329900.0
1950-08-29,328200.0
1950-08-30,327200.0
1950-08-31,325000.0
1950-09-01,324200.0
1950-09-02,316300.0
1950-09-03,303300.0
1950-09-04,285500.0
1950-09-05,280400.0
1950-09-06,283400.0
1950-09-07,285900.0
1950-09-08,292000.0
1950-09-09,293200.0
1950-09-10,286200.0
1950-09-11,288900.0
1950-09-12,298200.0
1950-09-13,306800.0
1950-09-14,318500.0
1950-09-15,325700.0
1950-09-16,327300.0
1950-09-17,322900.0
1950-09-18,336300.0
1950-09-19,356300.0
1950-09-20,365100.0
1950-09-21,373600.0
1950-09-22,384500.0
1950-09-23,381300.0
1950-09-24,379200.0
1950-09-25,376900.0
1950-09-26,398300.0
1950-09-27,421400.0
1950-09-28,424800.0
1950-09-29,428600.0
1950-09-30,424400.0
1950-10-01,415600.0
1950-10-02,423800.0
1950-10-03,430100.0
1950-10-04,436800.0
1950-10-05,442800.0
1950-10-06,450300.0
1950-10-07,450600.0
1950-10-08,444200.0
1950-10-09,446100.0
1950-10-10,453000.0
1950-10-11,460000.0
1950-10-12,465600.0
1950-10-13,470600.0
1950-10-14,470600.0
1950-10-15,464600.0
1950-10-16,463200.0
1950-10-17,468400.0
1950-10-18,474800.0
1950-10-19,479900.0
1950-10-20,486700.0
1950-10-21,488500.0
1950-10-22,485500.0
1950-10-23,488500.0
1950-10-24,495200.0
1950-10-25,503200.0
1950-10-26,523400.031
1950-10-27,533600.0
1950-10-28,536000.0
1950-10-29,534200.0
1950-10-30,539800.0
1950-10-31,556300.0
1950-11-01,562900.0
1950-11-02,572200.0
1950-11-03,578800.0
1950-11-04,579300.0
1950-11-05,575100.0
1950-11-06,586100.0
1950-11-07,599900.0
1950-11-08,601300.0
1950-11-09,612800.0
1950-11-10,609000.0
1950-11-11,608000.0
1950-11-12,603500.0
1950-11-13,612000.0
1950-11-14,625000.0
1950-11-15,636600.0
1950-11-16,650100.0
1950-11-17,666600.0
1950-11-18,679300.0
1950-11-19,687300.0
1950-11-20,697700.0
1950-11-21,713600.0
1950-11-22,726500.0
1950-11-23,728000.0
1950-11-24,734900.0
1950-11-25,743400.0
1950-11-26,748900.0
1950-11-27,761500.0
1950-11-28,776800.0
1950-11-29,788200.0
1950-11-30,796700.0
1950-12-01,804200.0
1950-12-02,805600.0
1950-12-03,800100.0
1950-12-04,808200.0
1950-12-05,818800.0
1950-12-06,827500.0
1950-12-07,835700.0
1950-12-08,847100.0
1950-12-09,852900.0
1950-12-10,848700.0
1950-12-11,857000.0
1950-12-12,869600.0
1950-12-13,887500.0
1950-12-14,899700.0
1950-12-15,909900.0
1950-12-16,914800.0
1950-12-17,915000.0
1950-12-18,922900.0
1950-12-19,934700.0
1950-12-20,945500.0
1950-12-21,957000.0
1950-12-22,968700.0
1950-12-23,970100.0
1950-12-24,966800.0
1950-12-25,962400.0
1950-12-26,971600.0
1950-12-27,993600.0
1950-12-28,1005500.0
1950-12-29,1018200.0
1950-12-30,1027800.06
1950-12-31,1030400.0
1951-01-01,1027500.0
1951-01-02,1039199.94
1951-01-03,1055300.0
1951-01-04,1071100.0
1951-01-05,1085900.0
1951-01-06,1090000.0
1951-01-07,1088200.0
1951-01-08,1105900.0
1951-01-09,1122400.0
1951-01-10,1138700.0
1951-01-11,1155100.0
1951-01-12,1171800.0
1951-01-13,1180600.0
1951-01-14,1179200.0
1951-01-15,1185800.0
1951-01-16,1202500.0
1951-01-17,1216700.0
1951-01-18,1230300.0
1951-01-19,1241900.0
1951-01-20,1248900.0
1951-01-21,1247700.0
1951-01-22,1257900.0
1951-01-23,1268100.0
1951-01-24,1277400.0
1951-01-25,1282700.0
1951-01-26,1289600.0
1951-01-27,1296200.0
1951-01-28,1294500.0
1951-01-29,1310400.0
1951-01-30,1320300.0
1951-01-31,1329900.0
1951-02-01,1335800.0
1951-02-02,1343000.0
1951-02-03,1346700.0
1951-02-04,1342500.0
1951-02-05,1348900.0
1951-02-06,1355600.0
1951-02-07,1362100.0
1951-02-08,1369100.0
1951-02-09,1375400.0
1951-02-10,1376200.0
1951-02-11,1370900.0
1951-02-12,1379700.0
1951-02-13,1387700.0
1951-02-14,1394500.0
1951-02-15,1401600.0
1951-02-16,1408600.0
1951-02-17,1405100.0
1951-02-18,1400600.0
1951-02-19,1410200.0
1951-02-20,1419600.0
1951-02-21,1432100.0
1951-02-22,1441800.0
1951-02-23,1456200.0
1951-02-24,1459500.0
1951-02-25,1454100.0
1951-02-26,1466700.0
1951-02-27,1479800.0
1951-02-28,1494000.0
1951-03-01,1506500.0
1951-03-02,1521900.0
1951-03-03,1525300.0
1951-03-04,1522200.0
1951-03-05,1535800.0
1951-03-06,1546800.0
1951-03-07,1556300.0
1951-03-08,1563400.0
1951-03-09,1571400.0
1951-03-10,1570800.0
1951-03-11,1565500.0
1951-03-12,1570600.0
1951-03-13,1575900.0
1951-03-14,1582600.0
1951-03-15,1587300.0
1951-03-16,1594300.0
1951-03-17,1588100.0
1951-03-18,1573500.0
1951-03-19,1576700.0
1951-03-20,1579100.0
1951-03-21,1580400.0
1951-03-22,1581800.0
1951-03-23,1583100.0
1951-03-24,1577200.0
1951-03-25,1561000.0
1951-03-26,1560300.0
1951-03-27,1563400.0
1951-03-28,1560300.0
1951-03-29,1558700.0
1951-03-30,1559700.0
1951-03-31,1549200.0
1951-04-01,1533200.0
1951-04-02,1527700.0
1951-04-03,1523000.0
1951-04-04,1516900.0
1951-04-05,1512000.0
1951-04-06,1507500.0
1951-04-07,1497400.0
1951-04-08,1482600.0
1951-04-09,1479300.0
1951-04-10,1483900.0
1951-04-11,1476400.0
1951-04-12,1479000.0
1951-04-13,1475200.0
1951-04-14,1472800.0
1951-04-15,1464900.0
1951-04-16,1467700.0
1951-04-17,1474100.0
1951-04-18,1479300.0
1951-04-19,1488800.0
1951-04-20,1495300.0
1951-04-21,1498700.0
1951-04-22,1495100.0
1951-04-23,1496900.0
1951-04-24,1498700.0
1951-04-25,1503100.0
1951-04-26,1506800.0
1951-04-27,1507000.0
1951-04-28,1505200.0
1951-04-29,1504200.0
1951-04-30,1508800.0
1951-05-01,1516900.0
1951-05-02,1528700.0
1951-05-03,1538700.0
1951-05-04,1547600.0
1951-05-05,1550300.0
1951-05-06,1549500.0
1951-05-07,1556300.0
1951-05-08,1563100.0
1951-05-09,1570800.0
1951-05-10,1581200.0
1951-05-11,1592100.0
1951-05-12,1592100.0
1951-05-13,1593500.0
1951-05-14,1600900.0
1951-05-15,1613500.0
1951-05-16,1621800.0
1951-05-17,1639700.0
1951-05-18,1642800.0
1951-05-19,1648500.0
1951-05-20,1648500.0
1951-05-21,1657400.0
1951-05-22,1665200.0
1951-05-23,1672200.0
1951-05-24,1679900.0
1951-05-25,1685900.0
1951-05-26,1689200.0
1951-05-27,1691100.0
1951-05-28,1696000.0
1951-05-29,1696000.0
1951-05-30,1680100.0
1951-05-31,1693100.0
1951-06-01,1677200.0
1951-06-02,1670600.0
1951-06-03,1666500.0
1951-06-04,1659200.0
1951-06-05,1654700.0
1951-06-06,1650100.0
1951-06-07,1647100.0
1951-06-08,1647600.0
1951-06-09,1642200.0
1951-06-10,1638500.0
1951-06-11,1639000.0
1951-06-12,1633600.0
1951-06-13,1625600.0
1951-06-14,1616200.0
1951-06-15,1606800.0
1951-06-16,1598300.0
1951-06-17,1590800.0
1951-06-18,1580100.0
1951-06-19,1570300.0
1951-06-20,1566000.0
1951-06-21,1551000.0
1951-06-22,1538700.0
1951-06-23,1531300.0
1951-06-24,1520100.0
1951-06-25,1510900.0
1951-06-26,1496100.0
1951-06-27,1484500.0
1951-06-28,1478000.0
1951-06-29,1473900.0
1951-06-30,1467700.0
1951-07-01,1458800.0
1951-07-02,1450800.0
1951-07-03,1441100.0
1951-07-04,1422200.0
1951-07-05,1411500.0
1951-07-06,1416300.0
1951-07-07,1410700.0
1951-07-08,1402600.0
1951-07-09,1395600.0
1951-07-10,1390000.0
1951-07-11,1383000.0
1951-07-12,1374600.0
1951-07-13,1365600.0
1951-07-14,1361100.0
1951-07-15,1351700.0
1951-07-16,1342700.0
1951-07-17,1336300.0
1951-07-18,1331400.0
1951-07-19,1324500.0
1951-07-20,1317300.0
1951-07-21,1311400.0
1951-07-22,1299400.0
1951-07-23,1295000.0
1951-07-24,1286900.0
1951-07-25,1281000.0
1951-07-26,1276400.0
1951-07-27,1276200.0
1951-07-28,1275700.0
1951-07-29,1273200.0
1951-07-30,1270100.0
1951-07-31,1267600.0
1951-08-01,1266400.0
1951-08-02,1264500.0
1951-08-03,1274800.0
1951-08-04,1256200.0
1951-08-05,1247000.0
1951-08-06,1242200.0
1951-08-07,1241700.0
1951-08-08,1239500.0
1951-08-09,1238000.0
1951-08-10,1238000.0
1951-08-11,1228200.0
1951-08-12,1212100.0
1951-08-13,1211600.0
1951-08-14,1212100.0
1951-08-15,1215500.0
1951-08-16,1218100.0
1951-08-17,1217200.0
1951-08-18,1212600.0
1951-08-19,1200600.0
1951-08-20,1196800.0
1951-08-21,1200100.0
1951-08-22,1204400.0
1951-08-23,1209000.0
1951-08-24,1214000.0
1951-08-25,1210900.0
1951-08-26,1195800.0
1951-08-27,1204500.0
1951-08-28,1229400.0
1951-08-29,1248200.0
1951-08-30,1268400.0
1951-08-31,1279600.0
1951-09-01,1281200.0
1951-09-02,1270600.0
1951-09-03,1255500.0
1951-09-04,1258400.0
1951-09-05,1268900.0
1951-09-06,1278600.0
1951-09-07,1286600.0
1951-09-08,1286400.0
1951-09-09,1278600.0
1951-09-10,1285200.0
1951-09-11,1298900.0
1951-09-12,1308500.0
1951-09-13,1321500.0
1951-09-14,1332400.0
1951-09-15,1336800.0
1951-09-16,1333800.0
1951-09-17,1342500.0
1951-09-18,1354100.0
1951-09-19,1366100.0
1951-09-20,1378200.0
1951-09-21,1388200.0
1951-09-22,1389000.0
1951-09-23,1382000.0
1951-09-24,1388700.0
1951-09-25,1389500.0
1951-09-26,1391200.0
1951-09-27,1391200.0
1951-09-28,1392200.0
1951-09-29,1385500.0
1951-09-30,1373100.0
1951-10-01,1371600.0
1951-10-02,1366600.0
1951-10-03,1364600.0
1951-10-04,1364100.0
1951-10-05,1365600.0
1951-10-06,1365600.0
1951-10-07,1360400.0
1951-10-08,1361100.0
1951-10-09,1364600.0
1951-10-10,1367400.0
1951-10-11,1372400.0
1951-10-12,1367600.0
1951-10-13,1374900.0
1951-10-14,1369900.0
1951-10-15,1369900.0
1951-10-16,1371900.0
1951-10-17,1372100.0
1951-10-18,1371400.0
1951-10-19,1371600.0
1951-10-20,1365100.0
1951-10-21,1355100.0
1951-10-22,1354600.0
1951-10-23,1352900.0
1951-10-24,1351500.0
1951-10-25,1354900.0
1951-10-26,1353600.0
1951-10-27,1348200.0
1951-10-28,1337800.0
1951-10-29,1337600.0
1951-10-30,1340500.0
1951-10-31,1341500.0
1951-11-01,1345000.0
1951-11-02,1344000.0
1951-11-03,1344200.0
1951-11-04,1339300.0
1951-11-05,1343200.0
1951-11-06,1347500.0
1951-11-07,1352900.0
1951-11-08,1355900.0
1951-11-09,1362400.0
1951-11-10,1362100.0
1951-11-11,1358900.0
1951-11-12,1364900.0
1951-11-13,1376600.0
1951-11-14,1388700.0
1951-11-15,1404700.0
1951-11-16,1416600.0
1951-11-17,1421200.0
1951-11-18,1420400.0
1951-11-19,1433900.0
1951-11-20,1449000.0
1951-11-21,1461300.0
1951-11-22,1459300.0
1951-11-23,1465700.0
1951-11-24,1467700.0
1951-11-25,1466200.0
1951-11-26,1478000.0
1951-11-27,1490900.0
1951-11-28,1509100.0
1951-11-29,1526900.0
1951-11-30,1541200.0
1951-12-01,1547600.0
1951-12-02,1547100.0
1951-12-03,1554000.0
1951-12-04,1562600.0
1951-12-05,1574800.0
1951-12-06,1587800.0
1951-12-07,1601700.0
1951-12-08,1614000.0
1951-12-09,1623700.0
1951-12-10,1628000.0
1951-12-11,1628800.0
1951-12-12,1627000.0
1951-12-13,1625100.0
1951-12-14,1627200.0
1951-12-15,1621600.0
1951-12-16,1611000.0
1951-12-17,1612900.0
1951-12-18,1610800.0
1951-12-19,1618900.0
1951-12-20,1622900.0
1951-12-21,1625600.0
1951-12-22,1619100.0
1951-12-23,1610800.0
1951-12-24,1601400.0
1951-12-25,1592100.0
1951-12-26,1592100.0
1951-12-27,1594000.0
1951-12-28,1595600.0
1951-12-29,1600900.0
1951-12-30,1598500.0
1951-12-31,1597500.0
1952-01-01,1597200.0
1952-01-02,1600400.0
1952-01-03,1594800.0
1952-01-04,1589200.0
1952-01-05,1580100.0
1952-01-06,1572600.0
1952-01-07,1574800.0
1952-01-08,1578800.0
1952-01-09,1582300.0
1952-01-10,1584400.0
1952-01-11,1582300.0
1952-01-12,1578500.0
1952-01-13,1573700.0
1952-01-14,1581200.0
1952-01-15,1579600.0
1952-01-16,1581500.0
1952-01-17,1586200.0
1952-01-18,1588600.0
1952-01-19,1581500.0
1952-01-20,1577400.0
1952-01-21,1580100.0
1952-01-22,1585400.0
1952-01-23,1589500.0
1952-01-24,1591800.0
1952-01-25,1598000.0
1952-01-26,1594500.0
1952-01-27,1597700.0
1952-01-28,1599300.0
1952-01-29,1599800.0
1952-01-30,1599800.0
1952-01-31,1599600.0
1952-02-01,1599300.0
1952-02-02,1597700.0
1952-02-03,1586800.0
1952-02-04,1581500.0
1952-02-05,1580600.0
1952-02-06,1576600.0
1952-02-07,1577400.0
1952-02-08,1574500.0
1952-02-09,1573500.0
1952-02-10,1566000.0
1952-02-11,1565500.0
1952-02-12,1572100.0
1952-02-13,1579600.0
1952-02-14,1582800.0
1952-02-15,1593400.0
1952-02-16,1589500.0
1952-02-17,1588100.0
1952-02-18,1590800.0
1952-02-19,1596100.0
1952-02-20,1601400.0
1952-02-21,1601900.0
1952-02-22,1603600.0
1952-02-23,1603800.0
1952-02-24,1601400.0
1952-02-25,1598800.0
1952-02-26,1602500.0
1952-02-27,1605500.0
1952-02-28,1604900.0
1952-02-29,1606000.0
1952-03-01,1161000.0
1952-03-02,1612600.0
1952-03-03,1613500.0
1952-03-04,1615100.0
1952-03-05,1617500.0
1952-03-06,1618900.0
1952-03-07,1614800.0
1952-03-08,1615600.0
1952-03-09,1602800.0
1952-03-10,1608900.0
1952-03-11,1606800.0
1952-03-12,1604600.0
1952-03-13,1600100.0
1952-03-14,1598500.0
1952-03-15,1601400.0
1952-03-16,1601400.0
1952-03-17,1604100.0
1952-03-18,1601400.0
1952-03-19,1601400.0
1952-03-20,1603300.0
1952-03-21,1600900.0
1952-03-22,1603300.0
1952-03-23,1593900.0
1952-03-24,1597500.0
1952-03-25,1594200.0
1952-03-26,1592600.0
1952-03-27,1592600.0
1952-03-28,1589200.0
1952-03-29,1588100.0
1952-03-30,1584400.0
1952-03-31,1586500.0
1952-04-01,1585400.0
1952-04-02,1583800.0
1952-04-03,1582800.0
1952-04-04,1584600.0
1952-04-05,1587600.0
1952-04-06,1582800.0
1952-04-07,1576600.0
1952-04-08,1569500.0
1952-04-09,1516000.0
1952-04-10,1553700.0
1952-04-11,1547100.0
1952-04-12,1553700.0
1952-04-13,1551100.0
1952-04-14,1553700.0
1952-04-15,1556300.0
1952-04-16,1564200.0
1952-04-17,1569800.0
1952-04-18,1575600.0
1952-04-19,1575800.0
1952-04-20,1562900.0
1952-04-21,1560000.0
1952-04-22,1555500.0
1952-04-23,1552100.0
1952-04-24,1549200.0
1952-04-25,1561900.0
1952-04-26,1571100.0
1952-04-27,1566300.0
1952-04-28,1572100.0
1952-04-29,1579000.0
1952-04-30,1584600.0
1952-05-01,1584600.0
1952-05-02,1585100.0
1952-05-03,1574500.0
1952-05-04,1563700.0
1952-05-05,1563900.0
1952-05-06,1566000.0
1952-05-07,1569500.0
1952-05-08,1574800.0
1952-05-09,1580100.0
1952-05-10,1569500.0
1952-05-11,1556300.0
1952-05-12,1568200.0
1952-05-13,1580100.0
1952-05-14,1593400.0
1952-05-15,1605500.0
1952-05-16,1614300.0
1952-05-17,1606300.0
1952-05-18,1590000.0
1952-05-19,1593900.0
1952-05-20,1602800.0
1952-05-21,1611800.0
1952-05-22,1612900.0
1952-05-23,1616400.0
1952-05-24,1608400.0
1952-05-25,1600100.0
1952-05-26,1606800.0
1952-05-27,1611300.0
1952-05-28,1616200.0
1952-05-29,1617200.0
1952-05-30,1615900.0
1952-05-31,1608900.0
1952-06-01,1598300.0
1952-06-02,1598800.0
1952-06-03,1601400.0
1952-06-04,1598800.0
1952-06-05,1597500.0
1952-06-06,1596100.0
1952-06-07,1590800.0
1952-06-08,1576100.0
1952-06-09,1577400.0
1952-06-10,1584100.0
1952-06-11,1585400.0
1952-06-12,1585400.0
1952-06-13,1585700.0
1952-06-14,1587300.0
1952-06-15,1577900.0
1952-06-16,1585100.0
1952-06-17,1588100.0
1952-06-18,1593400.0
1952-06-19,1601400.0
1952-06-20,1606800.0
1952-06-21,1600100.0
1952-06-22,1594200.0
1952-06-23,1592100.0
1952-06-24,1591300.0
1952-06-25,1591100.0
1952-06-26,1588100.0
1952-06-27,1585400.0
1952-06-28,1576100.0
1952-06-29,1565800.0
1952-06-30,1566800.0
1952-07-01,1566800.0
1952-07-02,1574300.0
1952-07-03,1576100.0
1952-07-04,1566800.0
1952-07-05,1561600.0
1952-07-06,1548400.0
1952-07-07,1548400.0
1952-07-08,1553700.0
1952-07-09,1556300.0
1952-07-10,1558900.0
1952-07-11,1563200.0
1952-07-12,1559700.0
1952-07-13,1546100.0
1952-07-14,1551000.0
1952-07-15,1557400.0
1952-07-16,1561800.0
1952-07-17,1567600.0
1952-07-18,1572600.0
1952-07-19,1575100.0
1952-07-20,1564700.0
1952-07-21,1567300.0
1952-07-22,1573500.0
1952-07-23,1577400.0
1952-07-24,1581700.0
1952-07-25,1589700.0
1952-07-26,1592900.0
1952-07-27,1585400.0
1952-07-28,1579800.0
1952-07-29,1582800.0
1952-07-30,1585700.0
1952-07-31,1586800.0
1952-08-01,1589500.0
1952-08-02,1585400.0
1952-08-03,1572100.0
1952-08-04,1574800.0
1952-08-05,1577400.0
1952-08-06,1580100.0
1952-08-07,1583300.0
1952-08-08,1586800.0
1952-08-09,1583100.0
1952-08-10,1572100.0
1952-08-11,1573200.0
1952-08-12,1576100.0
1952-08-13,1584900.0
1952-08-14,1588100.0
1952-08-15,1592700.0
1952-08-16,1590000.0
1952-08-17,1576100.0
1952-08-18,1577400.0
1952-08-19,1578800.0
1952-08-20,1583300.0
1952-08-21,1588600.0
1952-08-22,1592400.0
1952-08-23,1592100.0
1952-08-24,1576900.0
1952-08-25,1578800.0
1952-08-26,1582300.0
1952-08-27,1587300.0
1952-08-28,1593400.0
1952-08-29,1598800.0
1952-08-30,1598800.0
1952-08-31,1584100.0
1952-09-01,1570800.0
1952-09-02,1574800.0
1952-09-03,1582800.0
1952-09-04,1590000.0
1952-09-05,1599100.0
1952-09-06,1596600.0
1952-09-07,1590000.0
1952-09-08,1588100.0
1952-09-09,1594800.0
1952-09-10,1597700.0
1952-09-11,1604100.0
1952-09-12,1606800.0
1952-09-13,1607800.0
1952-09-14,1594200.0
1952-09-15,1595600.0
1952-09-16,1598000.0
1952-09-17,1602800.0
1952-09-18,1604200.0
1952-09-19,1616200.0
1952-09-20,1616400.0
1952-09-21,1605700.0
1952-09-22,1601900.0
1952-09-23,1604100.0
1952-09-24,1601900.0
1952-09-25,1604100.0
1952-09-26,1606800.0
1952-09-27,1604100.0
1952-09-28,1588100.0
1952-09-29,1586800.0
1952-09-30,1589500.0
1952-10-01,1588100.0
1952-10-02,1589500.0
1952-10-03,1587600.0
1952-10-04,1582800.0
1952-10-05,1573500.0
1952-10-06,1574800.0
1952-10-07,1576900.0
1952-10-08,1579800.0
1952-10-09,1579300.0
1952-10-10,1579300.0
1952-10-11,1580100.0
1952-10-12,1573700.0
1952-10-13,1575300.0
1952-10-14,1578800.0
1952-10-15,1578200.0
1952-10-16,1580600.0
1952-10-17,1582500.0
1952-10-18,1585400.0
1952-10-19,1586200.0
1952-10-20,1585400.0
1952-10-21,1586800.0
1952-10-22,1590300.0
1952-10-23,1592100.0
1952-10-24,1593400.0
1952-10-25,1597500.0
1952-10-26,1596100.0
1952-10-27,1592900.0
1952-10-28,1590800.0
1952-10-29,1590000.0
1952-10-30,1590000.0
1952-10-31,1590800.0
1952-11-01,1594500.0
1952-11-02,1597700.0
1952-11-03,1595600.0
1952-11-04,1593100.0
1952-11-05,1590000.0
1952-11-06,1586500.0
1952-11-07,1584400.0
1952-11-08,1584100.0
1952-11-09,1578800.0
1952-11-10,1579800.0
1952-11-11,1582000.0
1952-11-12,1579300.0
1952-11-13,1581200.0
1952-11-14,1577900.0
1952-11-15,1578800.0
1952-11-16,1582800.0
1952-11-17,1582800.0
1952-11-18,1589500.0
1952-11-19,1588100.0
1952-11-20,1590800.0
1952-11-21,1595000.0
1952-11-22,1594800.0
1952-11-23,1598800.0
1952-11-24,1600100.0
1952-11-25,1601400.0
1952-11-26,1605700.0
1952-11-27,1602200.0
1952-11-28,1603300.0
1952-11-29,1601100.0
1952-11-30,1598800.0
1952-12-01,1599600.0
1952-12-02,1597200.0
1952-12-03,1599300.0
1952-12-04,1599800.0
1952-12-05,1599300.0
1952-12-06,1570800.0
1952-12-07,1599600.0
1952-12-08,1601400.0
1952-12-09,1605700.0
1952-12-10,1608100.0
1952-12-11,1607600.0
1952-12-12,1609400.0
1952-12-13,1606300.0
1952-12-14,1604400.0
1952-12-15,1599300.0
1952-12-16,1603300.0
1952-12-17,1603600.0
1952-12-18,1606800.0
1952-12-19,1606800.0
1952-12-20,1609400.0
1952-12-21,1609700.0
1952-12-22,1608100.0
1952-12-23,1609400.0
1952-12-24,1610800.0
1952-12-25,1609700.0
1952-12-26,1609700.0
1952-12-27,1612600.0
1952-12-28,1615300.0
1952-12-29,1612600.0
1952-12-30,1608900.0
1952-12-31,1610800.0
1953-01-01,1602800.0
1953-01-02,1604100.0
1953-01-03,1601400.0
1953-01-04,1594800.0
1953-01-05,1596900.0
1953-01-06,1601900.0
1953-01-07,1603800.0
1953-01-08,1606000.0
1953-01-09,1605200.0
1953-01-10,1602500.0
1953-01-11,1593400.0
1953-01-12,1594800.0
1953-01-13,1601100.0
1953-01-14,1599600.0
1953-01-15,1606800.0
1953-01-16,1610800.0
1953-01-17,1604100.0
1953-01-18,1602800.0
1953-01-19,1608900.0
1953-01-20,1610500.0
1953-01-21,1616100.0
1953-01-22,1616100.0
1953-01-23,1621300.0
1953-01-24,1620700.0
1953-01-25,1621300.0
1953-01-26,1621600.0
1953-01-27,1625600.0
1953-01-28,1631000.0
1953-01-29,1628800.0
1953-01-30,1628800.0
1953-01-31,1620200.0
1953-02-01,1617200.0
1953-02-02,1611000.0
1953-02-03,1610800.0
1953-02-04,1607800.0
1953-02-05,1607300.0
1953-02-06,1600600.0
1953-02-07,1583800.0
1953-02-08,1574000.0
1953-02-09,1578800.0
1953-02-10,1577400.0
1953-02-11,1577400.0
1953-02-12,1577400.0
1953-02-13,1575600.0
1953-02-14,1568200.0
1953-02-15,1564200.0
1953-02-16,1568400.0
1953-02-17,1564700.0
1953-02-18,1563700.0
1953-02-19,1562100.0
1953-02-20,1569800.0
1953-02-21,1574500.0
1953-02-22,1579000.0
1953-02-23,1581700.0
1953-02-24,1584900.0
1953-02-25,1589900.0
1953-02-26,1590800.0
1953-02-27,1594500.0
1953-02-28,1586100.0
1953-03-01,1590800.0
1953-03-02,1592100.0
1953-03-03,1593400.0
1953-03-04,1596100.0
1953-03-05,1596100.0
1953-03-06,1595300.0
1953-03-07,1586100.0
1953-03-08,1587300.0
1953-03-09,1590300.0
1953-03-10,1590800.0
1953-03-11,1597500.0
1953-03-12,1602500.0
1953-03-13,1609400.0
1953-03-14,1608900.0
1953-03-15,1609700.0
1953-03-16,1614800.0
1953-03-17,1617000.0
1953-03-18,1618000.0
1953-03-19,1619700.0
1953-03-20,1620200.0
1953-03-21,1618600.0
1953-03-22,1619700.0
1953-03-23,1625600.0
1953-03-24,1621000.0
1953-03-25,1622900.0
1953-03-26,1625600.0
1953-03-27,1629700.0
1953-03-28,1631000.0
1953-03-29,1633600.0
1953-03-30,1635000.0
1953-03-31,1639000.0
1953-04-01,1637700.0
1953-04-02,1639000.0
1953-04-03,1640400.0
1953-04-04,1641400.0
1953-04-05,1638500.0
1953-04-06,1645800.0
1953-04-07,1648700.0
1953-04-08,1652500.0